Location: Cabeza de los Veneras
(40.2000°N, 5.2000°W)
Time: 07:27:46
(UTC+00:00)

Cosmos 1605 Rocket - Visible Passes

Search period start: 13 July 2024 00:00
Search period end: 23 July 2024 00:00
Orbit: 944 x 1005 km, 82.9° (Epoch: 12 July)

Date Brightness Start Highest point End Pass type
(mag) Time Alt. Az. Time Alt. Az. Time Alt. Az.
13 Jul 3.8 00:46:53 70° WSW 00:47:18 73° W 00:53:26 10° N visible
13 Jul 5.1 23:27:14 28° E 23:27:29 28° E 23:32:34 10° NNE visible
14 Jul 4.6 01:11:53 38° W 01:12:36 40° WNW 01:18:19 10° N visible
14 Jul 4.2 23:52:13 52° E 23:52:23 52° E 23:58:17 10° NNE visible
15 Jul 5.5 01:36:52 21° W 01:38:05 22° WNW 01:42:45 10° NNW visible
15 Jul 5.9 22:32:33 12° E 22:33:03 12° E 22:35:20 10° ENE visible
16 Jul 3.8 00:17:12 82° SW 00:17:27 86° W 00:23:36 10° N visible
16 Jul 6.1 02:01:50 10° W 02:03:45 12° WNW 02:05:57 10° NW visible
16 Jul 5.3 22:57:31 24° E 22:57:44 24° E 23:02:26 10° NE visible
17 Jul 4.4 00:42:09 46° W 00:42:41 47° WNW 00:48:35 10° N visible
17 Jul 4.4 23:22:28 43° E 23:22:35 44° E 23:28:19 10° NNE visible
18 Jul 5.3 01:07:06 25° W 01:08:06 26° WNW 01:13:11 10° NNW visible
18 Jul 3.8 23:47:24 79° ESE 23:47:36 80° E 23:53:45 10° N visible
19 Jul 6.0 01:32:03 13° W 01:33:43 14° WNW 01:36:57 10° NW visible
19 Jul 5.4 22:27:42 20° E 22:27:59 20° E 22:32:14 10° NE visible
20 Jul 4.2 00:12:20 55° W 00:12:47 57° W 00:18:49 10° N visible
20 Jul 4.6 22:52:37 36° E 22:52:47 37° E 22:58:20 10° NNE visible
21 Jul 5.1 00:37:15 30° W 00:38:09 31° WNW 00:43:32 10° NNW visible
21 Jul 3.9 23:17:31 67° ESE 23:17:45 68° E 23:23:51 10° NNE visible
22 Jul 5.8 01:02:08 16° W 01:03:42 17° WNW 01:07:40 10° NNW visible
22 Jul 5.6 21:57:46 16° E 21:58:16 17° E 22:01:56 10° NE visible
22 Jul 4.0 23:42:24 65° WSW 23:42:53 67° W 23:49:03 10° N visible
